| time (UTC) | temp F | wind direction | speed knots | gust knots | rain 1hr in | rain 24hr in | rain mn in | humidity % | barometer mb |
| 20260505140425 | 43 | 306 | 0.0 | 1.7 | 0.00 | 0.00 | 0.00 | 95 | 1016.2 |
| 20260505130111 | 42 | 306 | 0.0 | 0.9 | 0.00 | 0.00 | 0.00 | 92 | 1013.2 |
| 20260505124823 | 43 | 306 | 0.0 | 1.7 | 0.00 | 0.00 | 0.00 | 92 | 1015.8 |
| 20260505124520 | 42 | 306 | 0.9 | 1.7 | 0.00 | 0.00 | 0.00 | 92 | 1013.0 |
| 20260505123312 | 43 | 306 | 1.7 | 1.7 | 0.00 | 0.00 | 0.00 | 92 | 1015.8 |
| 20260505123052 | 42 | 306 | 0.0 | 1.7 | 0.00 | 0.00 | 0.00 | 93 | 1013.0 |
| 20260505121857 | 43 | 306 | 1.7 | 2.6 | 0.00 | 0.00 | 0.00 | 92 | 1015.8 |
| 20260505121521 | 42 | 306 | 0.9 | 2.6 | 0.00 | 0.00 | 0.00 | 92 | 1013.0 |
| 20260505120323 | 43 | 306 | 1.7 | 1.7 | 0.00 | 0.00 | 0.00 | 91 | 1015.6 |
| 20260505120053 | 43 | 306 | 0.9 | 1.7 | 0.00 | 0.00 | 0.00 | 91 | 1012.9 |
| 20260505114828 | 44 | 306 | 1.7 | 1.7 | 0.00 | 0.00 | 0.00 | 91 | 1015.6 |
| 20260505114503 | 43 | 306 | 0.9 | 1.7 | 0.00 | 0.00 | 0.00 | 91 | 1012.8 |
| 20260505113331 | 44 | 306 | 0.9 | 0.9 | 0.00 | 0.00 | 0.00 | 93 | 1015.6 |
| 20260505113006 | 44 | 306 | 0.0 | 0.0 | 0.00 | 0.00 | 0.00 | 94 | 1012.8 |
| 20260505111903 | 44 | 306 | 0.0 | 0.9 | 0.00 | 0.00 | 0.00 | 94 | 1015.6 |
| 20260505111547 | 44 | 306 | 0.0 | 1.7 | 0.00 | 0.00 | 0.00 | 93 | 1012.8 |
| 20260505110350 | 45 | 306 | 0.0 | 1.7 | 0.00 | 0.00 | 0.00 | 93 | 1015.6 |
| 20260505101820 | 45 | 306 | 2.6 | 2.6 | 0.00 | 0.00 | 0.00 | 91 | 1015.4 |
| 20260505101534 | 45 | 306 | 1.7 | 2.6 | 0.00 | 0.00 | 0.00 | 91 | 1012.3 |
| 20260505100308 | 45 | 306 | 1.7 | 2.6 | 0.00 | 0.00 | 0.00 | 90 | 1015.2 |
| 20260505100056 | 45 | 306 | 1.7 | 2.6 | 0.00 | 0.00 | 0.00 | 90 | 1012.2 |
| 20260505094834 | 46 | 308 | 1.7 | 1.7 | 0.00 | 0.00 | 0.00 | 91 | 1015.3 |
| 20260505094554 | 45 | 308 | 0.9 | 2.6 | 0.00 | 0.00 | 0.00 | 90 | 1012.2 |
| 20260505093314 | 46 | 308 | 1.7 | 1.7 | 0.00 | 0.00 | 0.00 | 91 | 1015.2 |
| 20260505093012 | 45 | 308 | 0.9 | 1.7 | 0.00 | 0.00 | 0.00 | 90 | 1012.1 |
| 20260505091820 | 46 | 308 | 1.7 | 2.6 | 0.00 | 0.00 | 0.00 | 90 | 1015.1 |
| 20260505091537 | 45 | 308 | 1.7 | 2.6 | 0.00 | 0.00 | 0.00 | 90 | 1011.9 |
| 20260505090328 | 46 | 308 | 2.6 | 2.6 | 0.00 | 0.00 | 0.00 | 90 | 1015.1 |
| 20260505090120 | 45 | 308 | 1.7 | 2.6 | 0.00 | 0.00 | 0.00 | 90 | 1012.0 |
| 20260505084835 | 46 | 305 | 2.6 | 2.6 | 0.00 | 0.00 | 0.00 | 90 | 1015.1 |
| 20260505084614 | 46 | 305 | 1.7 | 2.6 | 0.00 | 0.00 | 0.00 | 90 | 1011.9 |
| 20260505083340 | 47 | 311 | 0.9 | 1.7 | 0.00 | 0.00 | 0.00 | 89 | 1015.0 |
| 20260505083108 | 46 | 311 | 0.9 | 1.7 | 0.00 | 0.00 | 0.00 | 89 | 1011.8 |
| 20260505081813 | 47 | 311 | 1.7 | 1.7 | 0.00 | 0.00 | 0.00 | 89 | 1014.9 |
| 20260505081508 | 46 | 311 | 0.9 | 1.7 | 0.00 | 0.00 | 0.00 | 89 | 1011.7 |
| 20260505080349 | 47 | 284 | 1.7 | 2.6 | 0.00 | 0.00 | 0.00 | 88 | 1014.9 |
| 20260505080016 | 47 | 284 | 0.9 | 1.7 | 0.00 | 0.00 | 0.00 | 88 | 1011.6 |
| 20260505074910 | 48 | 284 | 0.9 | 1.7 | 0.00 | 0.00 | 0.00 | 89 | 1015.0 |
| 20260505074530 | 47 | 284 | 0.0 | 1.7 | 0.00 | 0.00 | 0.00 | 88 | 1011.7 |
| 20260505073319 | 48 | 284 | 0.9 | 2.6 | 0.00 | 0.00 | 0.00 | 89 | 1014.9 |
| 20260505073058 | 48 | 284 | 1.7 | 2.6 | 0.00 | 0.00 | 0.00 | 87 | 1011.8 |
| 20260505071818 | 49 | 272 | 0.9 | 1.7 | 0.00 | 0.00 | 0.00 | 85 | 1015.0 |
| 20260505071513 | 48 | 272 | 0.9 | 1.7 | 0.00 | 0.00 | 0.00 | 85 | 1011.6 |
| 20260505070327 | 50 | 210 | 0.0 | 1.7 | 0.00 | 0.00 | 0.00 | 86 | 1014.9 |
| 20260505070013 | 49 | 210 | 0.0 | 1.7 | 0.00 | 0.00 | 0.00 | 85 | 1011.4 |
| 20260505064811 | 50 | 210 | 0.0 | 0.9 | 0.00 | 0.00 | 0.00 | 84 | 1014.8 |
| 20260505064537 | 50 | 210 | 0.0 | 1.7 | 0.00 | 0.00 | 0.00 | 84 | 1011.4 |
| 20260505063319 | 51 | 210 | 0.9 | 1.7 | 0.00 | 0.00 | 0.00 | 82 | 1014.8 |
| 20260505063100 | 50 | 210 | 0.0 | 1.7 | 0.00 | 0.00 | 0.00 | 82 | 1011.4 |
| 20260505061905 | 51 | 139 | 0.9 | 1.7 | 0.00 | 0.00 | 0.00 | 81 | 1014.8 |
| 20260505061536 | 51 | 139 | 0.0 | 1.7 | 0.00 | 0.00 | 0.00 | 81 | 1011.3 |
| 20260505060332 | 52 | 139 | 0.0 | 1.7 | 0.00 | 0.00 | 0.00 | 80 | 1014.9 |
| 20260505060054 | 52 | 139 | 0.0 | 1.7 | 0.00 | 0.00 | 0.00 | 79 | 1011.4 |
| 20260505054857 | 53 | 233 | 0.0 | 1.7 | 0.00 | 0.00 | 0.00 | 78 | 1014.9 |
| 20260505054519 | 52 | 233 | 0.0 | 1.7 | 0.00 | 0.00 | 0.00 | 78 | 1011.3 |
| 20260505053343 | 53 | 233 | 0.0 | 1.7 | 0.00 | 0.00 | 0.00 | 77 | 1014.8 |
| 20260505053020 | 53 | 233 | 0.0 | 1.7 | 0.00 | 0.00 | 0.00 | 77 | 1011.3 |
| 20260505051808 | 54 | 233 | 0.9 | 1.7 | 0.00 | 0.00 | 0.00 | 75 | 1014.7 |
| 20260505051541 | 54 | 233 | 0.9 | 1.7 | 0.00 | 0.00 | 0.00 | 75 | 1011.2 |
| 20260505050337 | 54 | 233 | 0.9 | 1.7 | 0.00 | 0.00 | 0.00 | 74 | 1014.9 |
| 20260505041554 | 56 | 260 | 1.7 | 2.6 | 0.00 | 0.00 | 0.00 | 71 | 1011.1 |
| 20260505040340 | 57 | 235 | 0.9 | 1.7 | 0.00 | 0.00 | 0.00 | 69 | 1014.8 |
| 20260505040047 | 57 | 235 | 0.0 | 2.6 | 0.00 | 0.00 | 0.00 | 69 | 1010.9 |
| 20260505034845 | 58 | 245 | 0.0 | 2.6 | 0.00 | 0.00 | 0.00 | 68 | 1014.6 |
| 20260505034544 | 58 | 245 | 0.9 | 2.6 | 0.00 | 0.00 | 0.00 | 68 | 1010.8 |
| 20260505033329 | 59 | 256 | 0.9 | 3.5 | 0.00 | 0.00 | 0.00 | 67 | 1014.5 |
| 20260505033103 | 59 | 256 | 0.9 | 3.5 | 0.00 | 0.00 | 0.00 | 66 | 1010.7 |
| 20260505031808 | 60 | 238 | 2.6 | 4.3 | 0.00 | 0.00 | 0.00 | 64 | 1014.5 |
| 20260505031523 | 60 | 253 | 0.9 | 2.6 | 0.00 | 0.00 | 0.00 | 64 | 1010.6 |
| 20260505030317 | 61 | 222 | 2.6 | 4.3 | 0.00 | 0.00 | 0.00 | 62 | 1014.2 |
| 20260505030104 | 61 | 236 | 1.7 | 4.3 | 0.00 | 0.00 | 0.00 | 62 | 1010.4 |
| 20260505024839 | 63 | 217 | 1.7 | 3.5 | 0.00 | 0.00 | 0.00 | 59 | 1014.1 |
| 20260505024548 | 63 | 242 | 0.9 | 3.5 | 0.00 | 0.00 | 0.00 | 59 | 1010.2 |
| 20260505023328 | 64 | 264 | 1.7 | 6.1 | 0.00 | 0.00 | 0.00 | 57 | 1014.0 |
| 20260505023044 | 64 | 249 | 1.7 | 7.8 | 0.00 | 0.00 | 0.00 | 56 | 1010.0 |
| 20260505021805 | 65 | 216 | 4.3 | 10.4 | 0.00 | 0.00 | 0.00 | 55 | 1014.0 |
| 20260505021557 | 65 | 232 | 2.6 | 10.4 | 0.00 | 0.00 | 0.00 | 55 | 1010.1 |
| 20260505020309 | 66 | 242 | 4.3 | 9.6 | 0.00 | 0.00 | 0.00 | 53 | 1014.0 |
| 20260505020016 | 65 | 278 | 4.3 | 9.6 | 0.00 | 0.00 | 0.00 | 53 | 1010.0 |
| 20260505014834 | 67 | 254 | 4.3 | 10.4 | 0.00 | 0.00 | 0.00 | 51 | 1014.0 |
| 20260505014531 | 67 | 227 | 5.2 | 10.4 | 0.00 | 0.00 | 0.00 | 50 | 1009.9 |
| 20260505013322 | 68 | 198 | 3.5 | 7.8 | 0.00 | 0.00 | 0.00 | 53 | 1014.0 |
| 20260505013048 | 68 | 245 | 2.6 | 7.8 | 0.00 | 0.00 | 0.00 | 54 | 1010.1 |
| 20260505011827 | 67 | 177 | 6.1 | 9.6 | 0.00 | 0.00 | 0.00 | 55 | 1014.0 |
| 20260505011602 | 67 | 245 | 5.2 | 11.3 | 0.00 | 0.00 | 0.00 | 56 | 1010.0 |
| 20260505010329 | 68 | 221 | 7.0 | 11.3 | 0.00 | 0.00 | 0.00 | 53 | 1014.1 |
| 20260505010002 | 68 | 207 | 7.0 | 10.4 | 0.00 | 0.00 | 0.00 | 51 | 1010.1 |
| 20260505004814 | 69 | 190 | 2.6 | 9.6 | 0.00 | 0.00 | 0.00 | 46 | 1014.3 |
| 20260505004536 | 68 | 346 | 3.5 | 9.6 | 0.00 | 0.00 | 0.00 | 46 | 1010.1 |
| 20260505003343 | 69 | 254 | 3.5 | 9.6 | 0.00 | 0.00 | 0.00 | 51 | 1014.3 |
| 20260505003047 | 68 | 189 | 3.5 | 9.6 | 0.00 | 0.00 | 0.00 | 51 | 1010.1 |
| 20260505001827 | 69 | 284 | 6.1 | 10.4 | 0.00 | 0.00 | 0.00 | 49 | 1014.1 |
| 20260505001526 | 69 | 217 | 6.1 | 10.4 | 0.00 | 0.00 | 0.00 | 46 | 1010.0 |
| 20260505000314 | 70 | 256 | 4.3 | 7.0 | 0.00 | 0.00 | 0.00 | 44 | 1014.2 |
| 20260505000051 | 70 | 238 | 3.5 | 7.8 | 0.00 | 0.00 | 0.00 | 46 | 1010.1 |
| 20260504234813 | 70 | 248 | 2.6 | 10.4 | 0.00 | 0.00 | 0.00 | 44 | 1014.1 |
| 20260504234507 | 69 | 239 | 5.2 | 10.4 | 0.00 | 0.00 | 0.00 | 45 | 1009.9 |
| 20260504233350 | 70 | 236 | 3.5 | 12.2 | 0.00 | 0.00 | 0.00 | 44 | 1014.1 |
| 20260504233049 | 69 | 254 | 2.6 | 12.2 | 0.00 | 0.00 | 0.00 | 45 | 1010.1 |
| 20260504231834 | 70 | 203 | 5.2 | 10.4 | 0.00 | 0.00 | 0.00 | 44 | 1014.2 |
| 20260504231549 | 69 | 227 | 4.3 | 10.4 | 0.00 | 0.00 | 0.00 | 44 | 1010.0 |
| 20260504230314 | 70 | 188 | 6.1 | 11.3 | 0.00 | 0.00 | 0.00 | 42 | 1014.3 |
| 20260504230009 | 70 | 209 | 7.0 | 12.2 | 0.00 | 0.00 | 0.00 | 42 | 1010.2 |
| 20260504224847 | 70 | 204 | 6.1 | 13.0 | 0.00 | 0.00 | 0.00 | 42 | 1014.4 |
| 20260504224516 | 69 | 208 | 6.1 | 13.0 | 0.00 | 0.00 | 0.00 | 42 | 1010.2 |
| 20260504223355 | 70 | 198 | 7.0 | 10.4 | 0.00 | 0.00 | 0.00 | 45 | 1014.4 |
| 20260504223107 | 70 | 196 | 5.2 | 11.3 | 0.00 | 0.00 | 0.00 | 44 | 1010.1 |
| 20260504221813 | 70 | 191 | 6.1 | 12.2 | 0.00 | 0.00 | 0.00 | 40 | 1014.4 |
| 20260504221514 | 69 | 227 | 7.0 | 12.2 | 0.00 | 0.00 | 0.00 | 42 | 1010.3 |
| 20260504220320 | 71 | 242 | 5.2 | 10.4 | 0.00 | 0.00 | 0.00 | 42 | 1014.8 |
| 20260504220034 | 70 | 221 | 5.2 | 9.6 | 0.00 | 0.00 | 0.00 | 43 | 1010.5 |
| 20260504214826 | 71 | 229 | 3.5 | 10.4 | 0.00 | 0.00 | 0.00 | 41 | 1014.7 |
| 20260504214557 | 70 | 212 | 3.5 | 10.4 | 0.00 | 0.00 | 0.00 | 43 | 1010.5 |
| 20260504213335 | 70 | 197 | 4.3 | 11.3 | 0.00 | 0.00 | 0.00 | 47 | 1014.5 |
| 20260504213106 | 70 | 187 | 5.2 | 11.3 | 0.00 | 0.00 | 0.00 | 46 | 1010.3 |
| 20260504211832 | 71 | 195 | 6.1 | 13.0 | 0.00 | 0.00 | 0.00 | 42 | 1014.7 |
| 20260504211633 | 70 | 224 | 4.3 | 13.0 | 0.00 | 0.00 | 0.00 | 46 | 1010.3 |
| 20260504210314 | 69 | 201 | 7.0 | 10.4 | 0.00 | 0.00 | 0.00 | 47 | 1014.8 |
| 20260504210007 | 69 | 211 | 6.1 | 10.4 | 0.00 | 0.00 | 0.00 | 49 | 1010.2 |
| 20260504204847 | 69 | 202 | 7.0 | 13.9 | 0.00 | 0.00 | 0.00 | 50 | 1014.7 |
| 20260504204508 | 69 | 206 | 7.8 | 13.9 | 0.00 | 0.00 | 0.00 | 49 | 1010.4 |
| 20260504203307 | 69 | 237 | 7.8 | 10.4 | 0.00 | 0.00 | 0.00 | 51 | 1014.7 |
| 20260504203030 | 68 | 177 | 7.0 | 9.6 | 0.00 | 0.00 | 0.00 | 48 | 1010.3 |
| 20260504201813 | 69 | 179 | 6.1 | 9.6 | 0.00 | 0.00 | 0.00 | 49 | 1014.9 |
| 20260504201559 | 68 | 190 | 5.2 | 8.7 | 0.00 | 0.00 | 0.00 | 50 | 1010.5 |
| 20260504200342 | 68 | 197 | 7.0 | 11.3 | 0.00 | 0.00 | 0.00 | 49 | 1014.9 |
| 20260504200055 | 68 | 209 | 6.1 | 11.3 | 0.00 | 0.00 | 0.00 | 50 | 1010.6 |
| 20260504194828 | 68 | 202 | 6.1 | 9.6 | 0.00 | 0.00 | 0.00 | 52 | 1014.8 |
| 20260504194513 | 67 | 192 | 4.3 | 11.3 | 0.00 | 0.00 | 0.00 | 53 | 1010.4 |
| 20260504193325 | 68 | 179 | 7.0 | 9.6 | 0.00 | 0.00 | 0.00 | 54 | 1014.9 |
| 20260504193031 | 67 | 206 | 4.3 | 7.8 | 0.00 | 0.00 | 0.00 | 55 | 1010.4 |
| 20260504191811 | 68 | 184 | 5.2 | 9.6 | 0.00 | 0.00 | 0.00 | 56 | 1014.9 |
| 20260504191608 | 67 | 221 | 4.3 | 9.6 | 0.00 | 0.00 | 0.00 | 55 | 1010.5 |
| 20260504190341 | 67 | 239 | 6.1 | 10.4 | 0.00 | 0.00 | 0.00 | 55 | 1015.1 |
| 20260504190107 | 67 | 173 | 5.2 | 10.4 | 0.00 | 0.00 | 0.00 | 56 | 1010.6 |
| 20260504184845 | 66 | 192 | 5.2 | 10.4 | 0.00 | 0.00 | 0.00 | 56 | 1014.9 |
| 20260504184556 | 65 | 183 | 6.1 | 10.4 | 0.00 | 0.00 | 0.00 | 55 | 1010.5 |
| 20260504183334 | 66 | 224 | 7.0 | 9.6 | 0.00 | 0.00 | 0.00 | 56 | 1015.1 |
| 20260504183057 | 65 | 213 | 5.2 | 9.6 | 0.00 | 0.00 | 0.00 | 59 | 1010.6 |
| 20260504181920 | 64 | 213 | 7.8 | 9.6 | 0.00 | 0.00 | 0.00 | 59 | 1014.9 |
| 20260504181516 | 64 | 211 | 6.1 | 10.4 | 0.00 | 0.00 | 0.00 | 58 | 1010.5 |
| 20260504180344 | 63 | 200 | 7.8 | 10.4 | 0.00 | 0.00 | 0.00 | 58 | 1014.9 |
| 20260504180016 | 63 | 197 | 5.2 | 9.6 | 0.00 | 0.00 | 0.00 | 58 | 1010.4 |
| 20260504174808 | 63 | 191 | 6.1 | 10.4 | 0.00 | 0.00 | 0.00 | 58 | 1014.7 |
| 20260504174544 | 63 | 225 | 6.1 | 8.7 | 0.00 | 0.00 | 0.00 | 57 | 1010.3 |
| 20260504173338 | 63 | 194 | 6.1 | 8.7 | 0.00 | 0.00 | 0.00 | 55 | 1014.5 |
| 20260504173044 | 63 | 228 | 5.2 | 7.8 | 0.00 | 0.00 | 0.00 | 56 | 1010.2 |
| 20260504171843 | 63 | 200 | 5.2 | 8.7 | 0.00 | 0.00 | 0.00 | 56 | 1014.7 |
| 20260504171542 | 62 | 217 | 5.2 | 8.7 | 0.00 | 0.00 | 0.00 | 56 | 1010.1 |
| 20260504170330 | 63 | 201 | 4.3 | 7.0 | 0.00 | 0.00 | 0.00 | 53 | 1014.4 |
| 20260504160307 | 62 | 186 | 1.7 | 3.5 | 0.00 | 0.00 | 0.00 | 45 | 1014.1 |
| 20260504150340 | 65 | 224 | 2.6 | 3.5 | 0.00 | 0.00 | 0.00 | 39 | 1014.3 |